DECAYED

CZ-6A DEB, 56275 (Decayed)

Orbit data source: Space-Track

CZ-6A DEB, 56275 was space debris in SSO originally from a launch on Fri, 11 Nov 2022 UTC launched from the Taiyaun Space Center, China (TSC). Debris objects in space refer to the collection of defunct objects orbiting the Earth. Examples of debris include non-operational satellites, rocket bodies, and fragments generated from explosions, collisions, or faulty payload assembly.

Not visible in the next 10 days
Identifier
56275, 2022-151ACT
Orbit
Decayed
Country
Flag of CNCN / PRC
Related business
Manufacturer
SAST
Mission
Decayed spacecraft
Bus & Motor
Unknown
Mass
Unknown
Launch date (UTC)
2022-11-11 (4 years ago)
Launch vehicle
Unknown
Launch site
Taiyaun Space Center, China (TSC)
Object type
Payload
Rocket body
Debris
Shape & HBR
Unknown shape, 0.1 m
Radar Cross Section
Medium (>0.1 m² and <1 m²)

Expand to show TLE details & history
Last TLE update: 8 months ago

TLE from 8 months ago
0 CZ-6A DEB
1 56275U 22151ACT 25343.19873243  .05794959  00000-0  20690-1 0  9996
2 56275  98.5973  64.6958 0015944 349.7305  10.3632 15.84420908 71059
Epoch: 2025-12-09T04:46Z
TLE epoch observation values (Epoch: 2025-12-09T04:46:10.481Z)
Latitude
-0.00015°
Longitude
-85.0347°
Altitude
310.591 km
Speed
7.728 km/s
True Right ascension
04h 18m 46s
True Declination
0° 00' 01"
Sunlit
Object was in full shadow at epoch
Visualization orbit readout
Latitude
Unknown
Longitude
Unknown
Altitude
Unknown
Speed
Unknown
Apparent Right ascension
Unknown
Apparent Declination
Unknown
Sunlit
N/A
Visualization observer readout
Local Sidereal Time
19:34:22
Azimuth
Unknown
Elevation
Unknown
Doppler factor
Unknown
Orbital elements
Apogee altitude
325.564 km
Perigee altitude
304.221 km
Semi-major axis
6,693.03 km
Eccentricity
0.00159
Inclination
98.5973°
RAAN
64.6958°
Arg. of periapsis
349.7305°
True anomaly
10.39613°
Mean anomaly
10.3632°
Eccentric anomaly
10.37966°
Mean motion
3.96378 °/min
Orbital period
90.82 mins
BSTAR
0.02069
Loading maneuver chart data...
Computing Atmospheric mass density...
Loading historical data...
Loading historical data...
Loading historical data...
Loading historical data...
Loading historical data...
Loading historical data...
Loading historical data...

Documentation

Showing up to 5 results
|